Location: Coors Field
(39.7564°N, 104.9943°W)
Time: 03:43:49
(UTC-07:00)

ISS - Visible Passes

Search period start: 16 January 2017 00:00
Search period end: 26 January 2017 00:00
Orbit: 400 x 410 km, 51.6° (Epoch: 17 January)

Date Brightness Start Highest point End Pass type
(mag) Time Alt. Az. Time Alt. Az. Time Alt. Az.
16 Jan -0.4 04:55:55 14° NE 04:55:55 14° NE 04:56:51 10° ENE visible
16 Jan -3.4 06:28:35 13° NW 06:31:23 84° SW 06:34:38 10° SE visible
17 Jan -2.8 05:38:40 43° N 05:39:12 50° NNE 05:42:22 10° ESE visible
18 Jan -0.4 04:48:48 17° E 04:48:48 17° E 04:49:50 10° E visible
18 Jan -2.3 06:21:28 17° W 06:23:24 31° SW 06:26:19 10° SSE visible
19 Jan -3.1 05:31:41 58° S 05:31:41 58° S 05:34:31 10° SE visible
20 Jan -0.1 04:41:57 13° ESE 04:41:57 13° ESE 04:42:20 10° ESE visible
20 Jan -1.2 06:14:38 12° WSW 06:15:13 13° SW 06:16:45 10° SSW visible
21 Jan -1.0 05:24:59 16° S 05:24:59 16° S 05:25:55 10° S visible
